Time,TemperatureF,DewpointF,PressureIn,WindDirection,WindDirectionDegrees,WindSpeedMPH,WindSpeedGustMPH,Humidity,HourlyPrecipIn,Conditions,Clouds,dailyrainin,SoftwareType,DateUTC
2013-03-09 00:03:00,28.0,28.0,-100.00,South,190,2.0,7.0,99,-99.99,,,-99.99,,2013-03-09 05:03:00,
2013-03-09 00:12:00,29.0,29.0,-100.00,SSE,155,6.0,7.0,99,-99.99,,,-99.99,,2013-03-09 05:12:00,
2013-03-09 00:22:00,29.0,29.0,-100.00,SSE,155,6.0,7.0,99,-99.99,,,-99.99,,2013-03-09 05:22:00,
2013-03-09 00:32:00,28.0,28.0,-100.00,South,185,2.0,7.0,99,-99.99,,,-99.99,,2013-03-09 05:32:00,
2013-03-09 00:42:00,28.0,28.0,-100.00,SSE,155,4.0,7.0,99,-99.99,,,-99.99,,2013-03-09 05:42:00,
2013-03-09 00:52:00,28.0,28.0,-100.00,SSE,155,4.0,7.0,99,-99.99,,,-99.99,,2013-03-09 05:52:00,
2013-03-09 01:02:00,28.0,28.0,-100.00,South,170,3.0,5.0,99,-99.99,,,-99.99,,2013-03-09 06:02:00,
2013-03-09 01:11:00,28.0,28.0,-100.00,SSE,165,4.0,7.0,99,-99.99,,,-99.99,,2013-03-09 06:11:00,
2013-03-09 01:22:00,28.0,28.0,-100.00,SSE,165,4.0,7.0,99,-99.99,,,-99.99,,2013-03-09 06:22:00,
2013-03-09 01:32:00,28.0,28.0,-100.00,SE,145,6.0,9.0,99,-99.99,,,-99.99,,2013-03-09 06:32:00,
2013-03-09 01:42:00,27.0,27.0,-100.00,South,170,3.0,6.0,99,-99.99,,,-99.99,,2013-03-09 06:42:00,
2013-03-09 01:51:00,27.0,27.0,-100.00,South,170,3.0,6.0,99,-99.99,,,-99.99,,2013-03-09 06:51:00,
2013-03-09 02:01:00,27.0,27.0,-100.00,South,185,2.0,6.0,99,-99.99,,,-99.99,,2013-03-09 07:01:00,
2013-03-09 02:11:00,26.0,26.0,-100.00,South,170,3.0,6.0,99,-99.99,,,-99.99,,2013-03-09 07:11:00,
2013-03-09 02:21:00,26.0,26.0,-100.00,South,170,3.0,6.0,99,-99.99,,,-99.99,,2013-03-09 07:21:00,
2013-03-09 02:32:00,26.0,26.0,-100.00,South,175,3.0,8.0,99,-99.99,,,-99.99,,2013-03-09 07:32:00,
2013-03-09 02:42:00,26.0,26.0,-100.00,South,190,3.0,6.0,99,-99.99,,,-99.99,,2013-03-09 07:42:00,
2013-03-09 02:52:00,26.0,26.0,-100.00,South,190,3.0,6.0,99,-99.99,,,-99.99,,2013-03-09 07:52:00,
2013-03-09 03:01:00,26.0,26.0,-100.00,South,190,3.0,6.0,99,-99.99,,,-99.99,,2013-03-09 08:01:00,
2013-03-09 03:11:00,25.0,25.0,-100.00,South,170,2.0,4.0,99,-99.99,,,-99.99,,2013-03-09 08:11:00,
2013-03-09 03:22:00,25.0,25.0,-100.00,South,170,2.0,4.0,99,-99.99,,,-99.99,,2013-03-09 08:22:00,
2013-03-09 03:32:00,25.0,25.0,-100.00,SSE,160,2.0,4.0,99,-99.99,,,-99.99,,2013-03-09 08:32:00,
2013-03-09 03:42:00,25.0,25.0,-100.00,South,175,3.0,7.0,99,-99.99,,,-99.99,,2013-03-09 08:42:00,
2013-03-09 03:52:00,25.0,25.0,-100.00,South,175,3.0,7.0,99,-99.99,,,-99.99,,2013-03-09 08:52:00,
2013-03-09 04:02:00,24.0,24.0,-100.00,SSE,155,3.0,6.0,99,-99.99,,,-99.99,,2013-03-09 09:02:00,
2013-03-09 04:12:00,24.0,24.0,-100.00,SSE,165,4.0,5.0,99,-99.99,,,-99.99,,2013-03-09 09:12:00,
2013-03-09 04:21:00,24.0,24.0,-100.00,SSE,165,4.0,5.0,99,-99.99,,,-99.99,,2013-03-09 09:21:00,
2013-03-09 04:32:00,24.0,24.0,-100.00,SSE,160,4.0,6.0,99,-99.99,,,-99.99,,2013-03-09 09:32:00,
2013-03-09 04:42:00,24.0,24.0,-100.00,SSE,160,3.0,6.0,99,-99.99,,,-99.99,,2013-03-09 09:42:00,
2013-03-09 04:52:00,24.0,24.0,-100.00,SSE,160,3.0,6.0,99,-99.99,,,-99.99,,2013-03-09 09:52:00,
2013-03-09 05:01:00,24.0,24.0,-100.00,SSE,165,3.0,4.0,99,-99.99,,,-99.99,,2013-03-09 10:01:00,
2013-03-09 05:11:00,23.0,23.0,-100.00,South,180,2.0,4.0,99,-99.99,,,-99.99,,2013-03-09 10:11:00,
2013-03-09 05:21:00,23.0,23.0,-100.00,South,180,2.0,4.0,99,-99.99,,,-99.99,,2013-03-09 10:21:00,
2013-03-09 05:32:00,23.0,23.0,-100.00,SSE,155,3.0,6.0,99,-99.99,,,-99.99,,2013-03-09 10:32:00,
2013-03-09 05:42:00,24.0,24.0,-100.00,SSE,155,4.0,6.0,99,-99.99,,,-99.99,,2013-03-09 10:42:00,
2013-03-09 05:52:00,24.0,24.0,-100.00,SSE,155,4.0,6.0,99,-99.99,,,-99.99,,2013-03-09 10:52:00,
2013-03-09 06:01:00,23.0,23.0,-100.00,SSE,165,1.0,3.0,99,-99.99,,,-99.99,,2013-03-09 11:01:00,
2013-03-09 06:11:00,22.0,22.0,-100.00,SSE,155,2.0,4.0,99,-99.99,,,-99.99,,2013-03-09 11:11:00,
2013-03-09 06:21:00,22.0,22.0,-100.00,SSE,155,2.0,4.0,99,-99.99,,,-99.99,,2013-03-09 11:21:00,
2013-03-09 06:32:00,22.0,22.0,-100.00,South,180,2.0,4.0,99,-99.99,,,-99.99,,2013-03-09 11:32:00,
2013-03-09 06:42:00,22.0,22.0,-100.00,South,175,2.0,4.0,99,-99.99,,,-99.99,,2013-03-09 11:42:00,
2013-03-09 06:52:00,22.0,22.0,-100.00,South,175,2.0,4.0,99,-99.99,,,-99.99,,2013-03-09 11:52:00,
2013-03-09 07:02:00,22.0,22.0,-100.00,SSE,160,2.0,5.0,99,-99.99,,,-99.99,,2013-03-09 12:02:00,
2013-03-09 07:11:00,21.0,21.0,-100.00,SSW,205,2.0,4.0,99,-99.99,,,-99.99,,2013-03-09 12:11:00,
2013-03-09 07:21:00,21.0,21.0,-100.00,SSW,205,2.0,4.0,99,-99.99,,,-99.99,,2013-03-09 12:21:00,
2013-03-09 07:32:00,21.0,21.0,-100.00,SSE,165,2.0,4.0,99,-99.99,,,-99.99,,2013-03-09 12:32:00,
2013-03-09 07:42:00,21.0,21.0,-100.00,SE,145,2.0,4.0,99,-99.99,,,-99.99,,2013-03-09 12:42:00,
2013-03-09 07:52:00,21.0,21.0,-100.00,SE,145,2.0,4.0,99,-99.99,,,-99.99,,2013-03-09 12:52:00,
2013-03-09 08:02:00,23.0,23.0,-100.00,SSE,155,2.0,4.0,99,-99.99,,,-99.99,,2013-03-09 13:02:00,
2013-03-09 08:11:00,26.0,26.0,-100.00,South,185,1.0,5.0,99,-99.99,,,-99.99,,2013-03-09 13:11:00,
2013-03-09 08:21:00,26.0,26.0,-100.00,South,185,1.0,5.0,99,-99.99,,,-99.99,,2013-03-09 13:21:00,
2013-03-09 08:32:00,27.0,27.0,-100.00,SSE,150,2.0,6.0,99,-99.99,,,-99.99,,2013-03-09 13:32:00,
2013-03-09 08:42:00,28.0,28.0,-100.00,SE,140,1.0,2.0,99,-99.99,,,-99.99,,2013-03-09 13:42:00,
2013-03-09 08:52:00,28.0,28.0,-100.00,SE,140,1.0,2.0,99,-99.99,,,-99.99,,2013-03-09 13:52:00,
2013-03-09 09:01:00,30.0,30.0,-100.00,SE,125,1.0,2.0,99,-99.99,,,-99.99,,2013-03-09 14:01:00,
2013-03-09 09:11:00,32.0,32.0,-100.00,ESE,110,0.0,4.0,99,-99.99,,,-99.99,,2013-03-09 14:11:00,
2013-03-09 09:21:00,32.0,32.0,-100.00,ESE,110,0.0,4.0,99,-99.99,,,-99.99,,2013-03-09 14:21:00,
2013-03-09 09:32:00,34.0,33.0,-100.00,ENE,60,0.0,2.0,96,-99.99,,,-99.99,,2013-03-09 14:32:00,
2013-03-09 09:42:00,35.0,33.0,-100.00,NE,55,0.0,6.0,92,-99.99,,,-99.99,,2013-03-09 14:42:00,
2013-03-09 09:52:00,35.0,33.0,-100.00,NE,55,0.0,6.0,92,-99.99,,,-99.99,,2013-03-09 14:52:00,
2013-03-09 10:02:00,36.0,33.0,-100.00,NNE,20,0.0,1.0,87,-99.99,,,-99.99,,2013-03-09 15:02:00,
2013-03-09 10:12:00,37.0,31.0,-100.00,NW,325,0.0,2.0,77,-99.99,,,-99.99,,2013-03-09 15:12:00,
2013-03-09 10:22:00,37.0,31.0,-100.00,NW,325,0.0,2.0,77,-99.99,,,-99.99,,2013-03-09 15:22:00,
2013-03-09 10:32:00,38.0,29.0,-100.00,NNE,30,2.0,4.0,71,-99.99,,,-99.99,,2013-03-09 15:32:00,
2013-03-09 10:42:00,40.0,30.0,-100.00,North,0,1.0,4.0,68,-99.99,,,-99.99,,2013-03-09 15:42:00,
2013-03-09 10:52:00,40.0,30.0,-100.00,North,0,1.0,4.0,68,-99.99,,,-99.99,,2013-03-09 15:52:00,
2013-03-09 11:01:00,42.0,32.0,-100.00,ESE,115,0.0,2.0,69,-99.99,,,-99.99,,2013-03-09 16:01:00,
2013-03-09 11:11:00,43.0,30.0,-100.00,North,10,1.0,4.0,59,-99.99,,,-99.99,,2013-03-09 16:11:00,
2013-03-09 11:21:00,43.0,30.0,-100.00,North,10,1.0,4.0,59,-99.99,,,-99.99,,2013-03-09 16:21:00,
2013-03-09 11:32:00,44.0,29.0,-100.00,NNE,20,1.0,3.0,55,-99.99,,,-99.99,,2013-03-09 16:32:00,
2013-03-09 11:42:00,44.0,29.0,-100.00,NNE,30,2.0,6.0,54,-99.99,,,-99.99,,2013-03-09 16:42:00,
2013-03-09 11:51:00,44.0,29.0,-100.00,NNE,30,2.0,6.0,54,-99.99,,,-99.99,,2013-03-09 16:51:00,
2013-03-09 12:01:00,45.0,29.0,-100.00,NE,40,1.0,4.0,53,-99.99,,,-99.99,,2013-03-09 17:01:00,
2013-03-09 12:11:00,45.0,29.0,-100.00,NE,55,1.0,4.0,51,-99.99,,,-99.99,,2013-03-09 17:11:00,
2013-03-09 12:22:00,45.0,29.0,-100.00,NE,55,1.0,4.0,51,-99.99,,,-99.99,,2013-03-09 17:22:00,
2013-03-09 12:32:00,46.0,29.0,-100.00,NNE,25,1.0,3.0,50,-99.99,,,-99.99,,2013-03-09 17:32:00,
2013-03-09 12:42:00,47.0,29.0,-100.00,NE,40,1.0,4.0,49,-99.99,,,-99.99,,2013-03-09 17:42:00,
2013-03-09 12:52:00,47.0,29.0,-100.00,NE,40,1.0,4.0,49,-99.99,,,-99.99,,2013-03-09 17:52:00,
2013-03-09 13:02:00,47.0,29.0,-100.00,North,0,2.0,6.0,48,-99.99,,,-99.99,,2013-03-09 18:02:00,
2013-03-09 13:11:00,47.0,28.0,-100.00,NE,40,2.0,7.0,46,-99.99,,,-99.99,,2013-03-09 18:11:00,
2013-03-09 13:21:00,47.0,28.0,-100.00,NE,40,2.0,7.0,46,-99.99,,,-99.99,,2013-03-09 18:21:00,
2013-03-09 13:32:00,49.0,28.0,-100.00,North,0,1.0,6.0,44,-99.99,,,-99.99,,2013-03-09 18:32:00,
2013-03-09 13:42:00,49.0,28.0,-100.00,NNE,15,1.0,5.0,43,-99.99,,,-99.99,,2013-03-09 18:42:00,
2013-03-09 13:52:00,49.0,28.0,-100.00,NNE,15,1.0,5.0,43,-99.99,,,-99.99,,2013-03-09 18:52:00,
2013-03-09 14:02:00,50.0,28.0,-100.00,NNW,345,3.0,5.0,41,-99.99,,,-99.99,,2013-03-09 19:02:00,
2013-03-09 14:11:00,51.0,27.0,-100.00,NE,50,1.0,7.0,39,-99.99,,,-99.99,,2013-03-09 19:11:00,
2013-03-09 14:22:00,51.0,27.0,-100.00,NE,50,1.0,7.0,39,-99.99,,,-99.99,,2013-03-09 19:22:00,
2013-03-09 14:32:00,52.0,27.0,-100.00,NNE,20,1.0,4.0,37,-99.99,,,-99.99,,2013-03-09 19:32:00,
2013-03-09 14:42:00,52.0,26.0,-100.00,NE,35,1.0,4.0,36,-99.99,,,-99.99,,2013-03-09 19:42:00,
2013-03-09 14:52:00,52.0,26.0,-100.00,NE,35,1.0,4.0,36,-99.99,,,-99.99,,2013-03-09 19:52:00,
2013-03-09 15:02:00,52.0,25.0,-100.00,NNE,15,2.0,7.0,34,-99.99,,,-99.99,,2013-03-09 20:02:00,
2013-03-09 15:11:00,52.0,25.0,-100.00,ENE,65,1.0,5.0,34,-99.99,,,-99.99,,2013-03-09 20:11:00,
2013-03-09 15:22:00,52.0,25.0,-100.00,ENE,65,1.0,5.0,34,-99.99,,,-99.99,,2013-03-09 20:22:00,
2013-03-09 15:32:00,54.0,25.0,-100.00,ESE,105,1.0,10.0,32,-99.99,,,-99.99,,2013-03-09 20:32:00,
2013-03-09 15:42:00,54.0,24.0,-100.00,SE,125,4.0,7.0,31,-99.99,,,-99.99,,2013-03-09 20:42:00,
2013-03-09 15:52:00,54.0,24.0,-100.00,SE,125,4.0,7.0,31,-99.99,,,-99.99,,2013-03-09 20:52:00,
2013-03-09 16:02:00,55.0,25.0,-100.00,South,185,2.0,5.0,30,-99.99,,,-99.99,,2013-03-09 21:02:00,
2013-03-09 16:12:00,55.0,25.0,-100.00,South,185,2.0,5.0,30,-99.99,,,-99.99,,2013-03-09 21:12:00,
2013-03-09 16:22:00,55.0,25.0,-100.00,South,185,2.0,5.0,30,-99.99,,,-99.99,,2013-03-09 21:22:00,
2013-03-09 16:32:00,54.0,24.0,-100.00,South,180,4.0,7.0,30,-99.99,,,-99.99,,2013-03-09 21:32:00,
2013-03-09 16:42:00,55.0,24.0,-100.00,SE,145,2.0,6.0,29,-99.99,,,-99.99,,2013-03-09 21:42:00,
2013-03-09 16:52:00,55.0,24.0,-100.00,SE,145,2.0,6.0,29,-99.99,,,-99.99,,2013-03-09 21:52:00,
2013-03-09 17:01:00,54.0,22.0,-100.00,SE,135,5.0,9.0,28,-99.99,,,-99.99,,2013-03-09 22:01:00,
2013-03-09 17:11:00,54.0,22.0,-100.00,SSE,165,2.0,9.0,28,-99.99,,,-99.99,,2013-03-09 22:11:00,
2013-03-09 17:21:00,54.0,22.0,-100.00,SSE,165,2.0,9.0,28,-99.99,,,-99.99,,2013-03-09 22:21:00,
2013-03-09 17:32:00,53.0,22.0,-100.00,SE,135,3.0,7.0,28,-99.99,,,-99.99,,2013-03-09 22:32:00,
2013-03-09 17:42:00,53.0,22.0,-100.00,ESE,105,0.0,4.0,29,-99.99,,,-99.99,,2013-03-09 22:42:00,
2013-03-09 17:51:00,53.0,22.0,-100.00,ESE,105,0.0,4.0,29,-99.99,,,-99.99,,2013-03-09 22:51:00,
2013-03-09 18:01:00,50.0,21.0,-100.00,SSW,200,1.0,3.0,31,-99.99,,,-99.99,,2013-03-09 23:01:00,
2013-03-09 18:11:00,47.0,22.0,-100.00,South,170,1.0,4.0,37,-99.99,,,-99.99,,2013-03-09 23:11:00,
2013-03-09 18:21:00,47.0,22.0,-100.00,South,170,1.0,4.0,37,-99.99,,,-99.99,,2013-03-09 23:21:00,
2013-03-09 18:32:00,44.0,23.0,-100.00,South,170,2.0,2.0,43,-99.99,,,-99.99,,2013-03-09 23:32:00,
2013-03-09 18:42:00,42.0,24.0,-100.00,South,170,1.0,2.0,48,-99.99,,,-99.99,,2013-03-09 23:42:00,
2013-03-09 18:52:00,42.0,24.0,-100.00,South,170,1.0,2.0,48,-99.99,,,-99.99,,2013-03-09 23:52:00,
2013-03-09 19:02:00,40.0,26.0,-100.00,SSE,165,2.0,4.0,56,-99.99,,,-99.99,,2013-03-10 00:02:00,
2013-03-09 19:11:00,39.0,27.0,-100.00,SSE,155,2.0,4.0,62,-99.99,,,-99.99,,2013-03-10 00:11:00,
2013-03-09 19:22:00,39.0,27.0,-100.00,SSE,155,2.0,4.0,62,-99.99,,,-99.99,,2013-03-10 00:22:00,
2013-03-09 19:32:00,39.0,29.0,-100.00,South,180,1.0,4.0,66,-99.99,,,-99.99,,2013-03-10 00:32:00,
2013-03-09 19:42:00,38.0,29.0,-100.00,South,170,2.0,3.0,70,-99.99,,,-99.99,,2013-03-10 00:42:00,
2013-03-09 19:52:00,38.0,29.0,-100.00,South,170,2.0,3.0,70,-99.99,,,-99.99,,2013-03-10 00:52:00,
2013-03-09 20:01:00,37.0,29.0,-100.00,South,170,2.0,4.0,72,-99.99,,,-99.99,,2013-03-10 01:01:00,
2013-03-09 20:11:00,36.0,29.0,-100.00,South,180,1.0,4.0,74,-99.99,,,-99.99,,2013-03-10 01:11:00,
2013-03-09 20:21:00,36.0,29.0,-100.00,South,180,1.0,4.0,74,-99.99,,,-99.99,,2013-03-10 01:21:00,
2013-03-09 20:32:00,36.0,29.0,-100.00,South,175,2.0,4.0,75,-99.99,,,-99.99,,2013-03-10 01:32:00,
2013-03-09 20:42:00,36.0,29.0,-100.00,SSE,155,2.0,4.0,77,-99.99,,,-99.99,,2013-03-10 01:42:00,
2013-03-09 20:52:00,36.0,29.0,-100.00,SSE,155,2.0,4.0,77,-99.99,,,-99.99,,2013-03-10 01:52:00,
2013-03-09 21:01:00,35.0,29.0,-100.00,SSE,160,2.0,4.0,77,-99.99,,,-99.99,,2013-03-10 02:01:00,
2013-03-09 21:11:00,35.0,29.0,-100.00,SSE,160,3.0,4.0,79,-99.99,,,-99.99,,2013-03-10 02:11:00,
2013-03-09 21:22:00,35.0,29.0,-100.00,SSE,160,3.0,4.0,79,-99.99,,,-99.99,,2013-03-10 02:22:00,
2013-03-09 21:32:00,34.0,29.0,-100.00,SSE,160,2.0,4.0,80,-99.99,,,-99.99,,2013-03-10 02:32:00,
2013-03-09 21:42:00,34.0,29.0,-100.00,South,170,1.0,4.0,81,-99.99,,,-99.99,,2013-03-10 02:42:00,
2013-03-09 21:52:00,34.0,29.0,-100.00,South,170,1.0,4.0,81,-99.99,,,-99.99,,2013-03-10 02:52:00,
2013-03-09 22:02:00,34.0,29.0,-100.00,South,180,2.0,3.0,81,-99.99,,,-99.99,,2013-03-10 03:02:00,
2013-03-09 22:12:00,34.0,29.0,-100.00,SSE,165,1.0,4.0,80,-99.99,,,-99.99,,2013-03-10 03:12:00,
2013-03-09 22:22:00,34.0,29.0,-100.00,SSE,165,1.0,4.0,80,-99.99,,,-99.99,,2013-03-10 03:22:00,
2013-03-09 22:32:00,34.0,29.0,-100.00,SW,235,2.0,6.0,80,-99.99,,,-99.99,,2013-03-10 03:32:00,
2013-03-09 22:42:00,33.0,28.0,-100.00,SSE,160,2.0,4.0,82,-99.99,,,-99.99,,2013-03-10 03:42:00,
2013-03-09 22:52:00,33.0,28.0,-100.00,SSE,160,2.0,4.0,82,-99.99,,,-99.99,,2013-03-10 03:52:00,
2013-03-09 23:01:00,33.0,28.0,-100.00,South,175,1.0,6.0,83,-99.99,,,-99.99,,2013-03-10 04:01:00,
2013-03-09 23:11:00,33.0,28.0,-100.00,SSE,165,2.0,4.0,83,-99.99,,,-99.99,,2013-03-10 04:11:00,
2013-03-09 23:21:00,33.0,28.0,-100.00,SSE,165,2.0,4.0,83,-99.99,,,-99.99,,2013-03-10 04:21:00,
2013-03-09 23:32:00,33.0,28.0,-100.00,SSE,165,3.0,5.0,81,-99.99,,,-99.99,,2013-03-10 04:32:00,
2013-03-09 23:42:00,33.0,28.0,-100.00,SE,145,4.0,6.0,81,-99.99,,,-99.99,,2013-03-10 04:42:00,
2013-03-09 23:52:00,33.0,28.0,-100.00,SE,145,4.0,6.0,81,-99.99,,,-99.99,,2013-03-10 04:52:00,